"startDT [UTC]","vpos","CH4 [ppm]","stdev(CH4) [ppm]","CO2 [ppm]","stdev(CO2) [ppm]","H2O [ppm]","stdev(H2O)","p_LGR [torr]","T_LGR [C]","mt1_LGR [us]","mt2_LGR [us]","T_ECpre [C]","T_EC1 [C]","T_EC2 [C]","p_inlet [hPa]","p_in [hPa]","p_out [hPa]","T_inlet [C]","RH_inlet [%]","dwpt_inlet [C]","T_vent [C]","RH_vent [%]","dwpt_vent [C]","flow_vent [l min-1]","flow_inlet [l min-1]","dwpt_sample [C]","T_room [C]"
2012-07-29 00:00:00,0.0,1.9302,0.0010,376.90,0.34,105.0,22.8,138.03,32.14,24.65,36.50,0.95,17.79,-25.83,-49,549,-930,27.6,31.6,9.2,27.5,1.3,-30.3,5.73,2.42,-26.4,31.1
2012-07-29 00:01:00,0.0,1.9290,0.0016,377.11,0.33,104.9,29.2,138.03,32.14,24.65,36.49,0.96,17.82,-25.83,-49,550,-930,27.6,31.6,9.2,27.6,1.3,-30.4,5.73,2.41,-26.4,31.0
2012-07-29 00:02:00,0.0,1.9293,0.0013,376.85,0.32,109.2,31.1,138.03,32.15,24.65,36.50,0.96,17.86,-25.83,-49,550,-930,27.6,31.6,9.2,27.6,1.3,-30.4,5.73,2.40,-26.4,31.1
2012-07-29 00:03:00,0.0,1.9282,0.0013,376.98,0.48,105.9,26.7,138.03,32.15,24.65,36.50,0.96,17.89,-25.82,-49,550,-930,27.6,31.9,9.4,27.6,1.3,-30.4,5.73,2.40,-26.4,31.1
2012-07-29 00:04:00,0.0,1.9290,0.0009,376.99,0.33,104.9,26.6,138.03,32.15,24.65,36.49,0.95,17.92,-25.82,-49,550,-930,27.6,32.2,9.5,27.6,1.3,-30.4,5.73,2.41,-26.4,31.1
2012-07-29 00:05:00,0.0,1.9289,0.0012,376.95,0.32,102.2,33.3,138.03,32.16,24.65,36.50,0.95,17.95,-25.82,-49,550,-930,27.6,31.8,9.3,27.6,1.3,-30.4,5.73,2.41,-26.4,31.1
2012-07-29 00:06:00,0.0,1.9270,0.0011,377.47,0.34,102.8,29.8,138.03,32.16,24.65,36.50,0.97,17.98,-25.82,-49,550,-930,27.6,30.9,8.9,27.6,1.3,-30.3,5.73,2.42,-26.4,31.1
2012-07-29 00:07:00,0.0,1.9259,0.0009,377.67,0.28,107.5,31.3,138.03,32.16,24.65,36.49,0.96,18.00,-25.82,-49,550,-930,27.6,30.6,8.8,27.6,1.3,-30.4,5.73,2.42,-26.4,31.2
2012-07-29 00:08:00,0.0,1.9254,0.0009,377.70,0.31,103.8,26.5,138.03,32.17,24.65,36.49,0.96,18.03,-25.81,-49,550,-930,27.6,30.9,8.9,27.6,1.3,-30.4,5.73,2.41,-26.4,31.1
2012-07-29 00:09:00,0.0,1.9249,0.0012,377.73,0.38,113.6,31.8,138.03,32.17,24.65,36.49,0.95,18.06,-25.81,-49,550,-930,27.6,30.3,8.6,27.6,1.3,-30.4,5.73,2.40,-26.4,31.1
2012-07-29 00:10:00,0.0,1.9233,0.0009,377.98,0.29,109.3,30.0,138.03,32.17,24.65,36.49,0.97,18.08,-25.81,-49,550,-930,27.7,30.2,8.6,27.6,1.3,-30.3,5.73,2.40,-26.4,31.2
2012-07-29 00:11:00,0.0,1.9243,0.0009,377.64,0.29,105.8,29.5,138.03,32.18,24.65,36.50,0.95,18.11,-25.81,-49,550,-930,27.7,30.4,8.7,27.6,1.3,-30.3,5.73,2.40,-26.4,31.1
2012-07-29 00:12:00,0.0,1.9246,0.0009,377.59,0.29,105.8,29.5,138.03,32.18,24.65,36.49,0.96,18.12,-25.81,-49,550,-930,27.7,30.5,8.8,27.6,1.3,-30.3,5.73,2.41,-26.4,31.2
2012-07-29 00:13:00,0.0,1.9252,0.0012,377.12,0.32,112.6,28.7,138.03,32.19,24.65,36.50,0.97,18.15,-25.80,-49,550,-930,27.7,31.0,9.0,27.6,1.3,-30.3,5.73,2.41,-26.4,31.2
2012-07-29 00:14:00,0.0,1.9253,0.0009,377.29,0.30,110.1,32.3,138.03,32.19,24.65,36.50,0.95,18.17,-25.80,-49,550,-930,27.7,30.7,8.9,27.6,1.3,-30.3,5.73,2.42,-26.4,31.1
2012-07-29 00:15:00,0.0,1.9251,0.0009,377.04,0.31,112.0,30.5,138.03,32.20,24.66,36.49,0.96,18.19,-25.80,-49,550,-930,27.7,30.6,8.8,27.6,1.3,-30.3,5.73,2.41,-26.4,31.1
2012-07-29 00:16:00,0.0,1.9246,0.0009,377.18,0.47,113.0,34.0,138.03,32.20,24.65,36.50,0.95,18.20,-25.79,-49,550,-930,27.7,30.8,8.9,27.6,1.3,-30.3,5.73,2.41,-26.4,31.2
2012-07-29 00:17:00,0.0,1.9257,0.0009,376.67,0.32,105.5,29.0,138.03,32.20,24.65,36.50,0.96,18.23,-25.79,-49,550,-930,27.7,30.9,9.0,27.6,1.3,-30.3,5.73,2.40,-26.4,31.2
2012-07-29 00:18:00,0.0,1.9257,0.0012,377.15,0.26,111.8,33.2,138.02,32.21,24.65,36.50,0.96,18.25,-25.79,-49,550,-930,27.7,30.5,8.8,27.6,1.3,-30.3,5.73,2.39,-26.4,31.2
2012-07-29 00:19:00,0.0,1.9266,0.0009,376.98,0.35,109.7,27.8,138.02,32.21,24.65,36.50,0.97,18.26,-25.79,-49,550,-930,27.7,31.0,9.1,27.6,1.3,-30.3,5.73,2.40,-26.4,31.3
2012-07-29 00:20:00,0.0,1.9267,0.0012,376.57,0.29,115.1,27.8,138.03,32.21,24.66,36.50,0.96,18.28,-25.78,-49,550,-930,27.7,31.1,9.1,27.7,1.3,-30.3,5.73,2.41,-26.4,31.3
2012-07-29 00:21:00,0.0,1.9278,0.0010,376.67,0.30,120.6,32.2,138.02,32.22,24.65,36.50,0.97,18.29,-25.79,-49,550,-930,27.7,31.0,9.1,27.7,1.3,-30.3,5.73,2.41,-26.4,31.3
2012-07-29 00:22:00,0.0,1.9280,0.0011,376.96,0.30,110.9,31.5,138.02,32.22,24.65,36.49,0.96,18.30,-25.79,-49,550,-930,27.7,30.7,8.9,27.7,1.3,-30.3,5.73,2.41,-26.4,31.3
2012-07-29 00:23:00,0.0,1.9293,0.0010,377.31,0.27,118.2,37.4,138.02,32.23,24.65,36.49,0.97,18.32,-25.78,-49,550,-930,27.7,30.2,8.7,27.7,1.3,-30.3,5.73,2.40,-26.4,31.3
2012-07-29 00:24:00,0.0,1.9292,0.0009,377.43,0.35,112.8,37.2,138.02,32.24,24.65,36.49,1.18,17.62,-25.79,-49,550,-930,27.7,30.6,8.9,27.7,1.3,-30.3,5.73,2.40,-26.4,31.2
2012-07-29 00:25:00,0.0,1.9287,0.0013,376.88,0.41,111.2,29.8,138.02,32.24,24.66,36.49,1.07,15.60,-25.79,-49,550,-930,27.8,30.6,8.9,27.7,1.3,-30.3,5.73,2.39,-26.4,31.2
2012-07-29 00:26:00,0.0,1.9282,0.0009,377.88,0.40,125.0,35.7,138.02,32.24,24.65,36.50,1.02,13.26,-25.79,-49,550,-930,27.8,29.6,8.4,27.7,1.3,-30.3,5.73,2.40,-26.4,31.3
2012-07-29 00:27:00,0.0,1.9264,0.0015,377.90,0.37,110.4,30.3,138.02,32.25,24.65,36.49,1.03,10.91,-25.80,-49,550,-930,27.8,29.7,8.5,27.7,1.3,-30.3,5.73,2.41,-26.4,31.3
2012-07-29 00:28:00,0.0,1.9256,0.0011,377.96,0.27,115.3,26.7,138.02,32.26,24.65,36.49,1.00,8.63,-25.81,-49,550,-930,27.8,29.7,8.5,27.8,1.3,-30.3,5.73,2.41,-26.4,31.3
2012-07-29 00:29:00,0.0,1.9258,0.0012,377.96,0.30,121.1,32.8,138.02,32.26,24.65,36.49,1.05,6.46,-25.80,-49,550,-930,27.8,29.8,8.5,27.8,1.3,-30.3,5.73,2.41,-26.4,31.3
2012-07-29 00:30:00,0.0,1.9257,0.0013,377.83,0.30,117.2,29.5,138.02,32.27,24.65,36.50,1.12,4.40,-25.79,-49,551,-930,27.8,29.6,8.4,27.8,1.3,-30.2,5.73,2.40,-26.4,31.3
2012-07-29 00:31:00,0.0,1.9250,0.0014,377.77,0.29,121.5,26.1,138.02,32.27,24.65,36.49,0.99,2.43,-25.77,-49,551,-930,27.8,30.3,8.8,27.8,1.3,-30.2,5.73,2.39,-26.4,31.3
2012-07-29 00:32:00,0.0,1.9230,0.0014,377.82,0.43,118.0,26.3,138.02,32.28,24.65,36.49,1.07,0.56,-25.76,-49,551,-931,27.8,29.8,8.5,27.8,1.3,-30.3,5.73,2.39,-26.4,31.3
2012-07-29 00:33:00,0.0,1.9230,0.0011,377.90,0.32,121.5,34.7,138.02,32.28,24.65,36.49,1.10,-1.20,-25.74,-49,551,-930,27.8,30.1,8.7,27.8,1.3,-30.2,5.73,2.40,-26.4,31.3
2012-07-29 00:34:00,0.0,1.9221,0.0010,377.87,0.29,118.5,27.8,138.02,32.29,24.65,36.49,1.00,-2.79,-25.72,-49,551,-930,27.8,29.9,8.6,27.8,1.3,-30.3,5.73,2.41,-26.4,31.3
2012-07-29 00:35:00,0.0,1.9204,0.0009,378.14,0.28,120.8,29.0,138.02,32.30,24.65,36.49,1.06,-3.55,-25.70,-49,551,-930,27.9,29.8,8.6,27.8,1.3,-30.3,5.73,2.41,-26.4,31.4
2012-07-29 00:36:00,0.0,1.9213,0.0015,377.94,0.29,112.9,28.1,138.02,32.30,24.65,36.49,1.10,-5.26,-25.69,-49,551,-930,27.9,30.4,8.9,27.8,1.3,-30.2,5.73,2.40,-26.4,31.4
2012-07-29 00:37:00,0.0,1.9225,0.0009,377.99,0.34,125.5,33.1,138.02,32.31,24.65,36.49,1.02,-6.67,-25.68,-49,551,-931,27.9,30.1,8.7,27.8,1.3,-30.2,5.73,2.39,-26.4,31.4
2012-07-29 00:38:00,0.0,1.9217,0.0011,378.04,0.34,116.2,32.4,138.02,32.31,24.66,36.50,1.02,-7.97,-25.67,-49,551,-930,27.9,29.8,8.6,27.8,1.3,-30.2,5.73,2.39,-26.4,31.3
2012-07-29 00:39:00,0.0,1.9204,0.0010,378.26,0.29,123.7,32.1,138.02,32.32,24.65,36.50,1.10,-9.16,-25.65,-49,551,-930,27.9,29.6,8.5,27.8,1.3,-30.2,5.73,2.39,-26.3,31.3
2012-07-29 00:40:00,0.0,1.9209,0.0014,378.17,0.32,119.6,30.7,138.02,32.32,24.65,36.50,1.05,-10.30,-25.64,-49,551,-930,27.9,29.5,8.5,27.8,1.3,-30.3,5.73,2.40,-26.4,31.3
2012-07-29 00:41:00,0.0,1.9191,0.0011,378.36,0.31,119.5,32.4,138.02,32.33,24.65,36.49,1.00,-11.35,-25.63,-49,551,-930,27.9,29.3,8.4,27.8,1.3,-30.2,5.73,2.41,-26.4,31.3
2012-07-29 00:42:00,0.0,1.9197,0.0009,378.30,0.31,117.2,31.9,138.02,32.33,24.65,36.49,1.06,-12.41,-25.63,-49,551,-930,27.9,29.6,8.5,27.8,1.3,-30.3,5.73,2.40,-26.4,31.3
2012-07-29 00:43:00,0.0,1.9197,0.0014,377.89,0.39,122.8,30.4,138.02,32.34,24.65,36.49,1.10,-13.40,-25.62,-49,551,-930,27.9,30.2,8.8,27.9,1.3,-30.2,5.73,2.39,-26.4,31.4
2012-07-29 00:44:00,0.0,1.9168,0.0027,378.48,0.43,111.7,30.2,138.02,32.34,24.65,36.50,1.01,-14.30,-25.62,-50,551,-930,27.9,28.9,8.2,27.9,1.3,-30.2,5.73,2.39,-26.4,31.4
2012-07-29 00:45:00,0.0,1.9194,0.0018,377.57,0.60,120.7,30.1,138.02,32.35,24.65,36.49,1.00,-15.13,-25.61,-50,551,-930,27.9,30.3,8.9,27.9,1.3,-30.2,5.73,2.39,-26.3,31.5
2012-07-29 00:46:00,0.0,1.9192,0.0012,377.93,0.27,123.3,23.7,138.02,32.35,24.65,36.50,1.08,-15.92,-25.61,-49,551,-930,27.9,29.7,8.6,27.9,1.3,-30.2,5.73,2.40,-26.4,31.4
2012-07-29 00:47:00,0.0,1.9209,0.0013,377.50,0.36,122.6,31.6,138.02,32.36,24.65,36.49,1.08,-16.67,-25.62,-49,551,-930,27.9,29.8,8.7,27.9,1.3,-30.1,5.73,2.40,-26.4,31.5
2012-07-29 00:48:00,0.0,1.9217,0.0016,377.54,0.55,117.8,25.3,138.02,32.37,24.65,36.49,0.99,-17.39,-25.62,-49,551,-930,28.0,30.2,8.9,27.9,1.3,-30.2,5.73,2.40,-26.4,31.5
2012-07-29 00:49:00,0.0,1.9218,0.0015,377.55,0.41,118.1,29.6,138.02,32.37,24.65,36.49,1.01,-18.08,-25.62,-49,551,-930,28.0,29.8,8.7,27.9,1.3,-30.2,5.73,2.40,-26.4,31.5
2012-07-29 00:50:00,0.0,1.9221,0.0014,377.69,0.54,128.3,31.0,138.02,32.38,24.65,36.49,1.08,-18.73,-25.62,-49,551,-930,28.0,29.4,8.5,27.9,1.3,-30.2,5.73,2.38,-26.4,31.5
2012-07-29 00:51:00,0.0,1.9222,0.0010,377.68,0.39,129.9,30.6,138.02,32.39,24.65,36.50,1.05,-19.34,-25.63,-50,551,-931,28.0,29.4,8.5,28.0,1.3,-30.2,5.73,2.38,-26.4,31.5
2012-07-29 00:52:00,0.0,1.9190,0.0012,378.72,0.35,122.5,30.3,138.02,32.40,24.65,36.49,0.98,-19.92,-25.63,-49,551,-931,28.0,28.3,7.9,28.0,1.3,-30.1,5.73,2.39,-26.3,31.6
2012-07-29 00:53:00,0.0,1.9172,0.0010,378.95,0.30,127.5,33.3,138.02,32.40,24.65,36.49,1.02,-20.47,-25.64,-49,551,-930,28.0,28.2,7.9,28.0,1.3,-30.1,5.73,2.40,-26.3,31.5
2012-07-29 00:54:00,0.0,1.9188,0.0013,378.98,0.27,128.9,35.8,138.02,32.41,24.65,36.49,1.08,-21.00,-25.64,-49,552,-930,28.1,28.6,8.1,28.0,1.3,-30.1,5.73,2.40,-26.3,31.5
2012-07-29 00:55:00,0.0,1.9225,0.0015,378.88,0.26,130.7,29.4,138.02,32.42,24.65,36.50,1.06,-21.49,-25.65,-50,551,-931,28.1,29.0,8.3,28.0,1.3,-30.1,5.73,2.39,-26.3,31.5
2012-07-29 00:56:00,0.0,1.9279,0.0013,379.07,0.30,130.5,32.5,138.02,32.42,24.65,36.49,0.97,-21.95,-25.66,-50,551,-931,28.1,29.0,8.4,28.0,1.3,-30.2,5.73,2.38,-26.3,31.5
2012-07-29 00:57:00,0.0,1.9253,0.0018,379.32,0.29,126.7,34.9,138.02,32.43,24.65,36.49,1.02,-22.39,-25.67,-50,552,-930,28.1,28.6,8.2,28.0,1.3,-30.2,5.73,2.38,-26.3,31.5
2012-07-29 00:58:00,0.0,1.9228,0.0010,379.36,0.36,126.2,28.4,138.02,32.44,24.65,36.49,1.05,-22.80,-25.68,-49,552,-931,28.1,28.1,7.9,28.0,1.3,-30.2,5.73,2.39,-26.3,31.5
2012-07-29 00:59:00,0.0,1.9202,0.0011,379.74,0.30,130.1,28.7,138.02,32.45,24.65,36.50,1.08,-23.20,-25.68,-50,552,-931,28.1,27.8,7.8,28.0,1.3,-30.3,5.73,2.40,-26.3,31.6
2012-07-29 01:00:00,0.0,1.9219,0.0010,379.04,0.33,129.5,28.7,138.02,32.45,24.65,36.50,1.00,-23.57,-25.70,-50,552,-931,28.1,28.9,8.3,28.0,1.3,-30.3,5.73,2.40,-26.3,31.6
2012-07-29 01:01:00,0.0,1.9212,0.0009,379.24,0.33,134.9,26.9,138.02,32.46,24.65,36.49,0.99,-23.92,-25.70,-50,552,-930,28.1,28.2,8.0,28.0,1.3,-30.4,5.73,2.38,-26.3,31.5
2012-07-29 01:02:00,0.0,1.9179,0.0015,379.91,0.29,134.1,33.6,138.02,32.46,24.65,36.48,1.03,-24.25,-25.71,-50,552,-931,28.1,27.5,7.6,28.1,1.3,-30.3,5.73,2.38,-26.3,31.5
2012-07-29 01:03:00,0.0,1.9191,0.0010,379.54,0.27,130.3,29.8,138.02,32.47,24.65,36.49,1.08,-24.56,-25.73,-50,552,-930,28.1,28.0,7.9,28.1,1.3,-30.3,5.73,2.38,-26.3,31.5
2012-07-29 01:04:00,0.0,1.9157,0.0021,380.09,0.36,137.5,30.2,138.02,32.48,24.65,36.49,1.05,-24.85,-25.73,-50,552,-931,28.1,27.2,7.4,28.1,1.3,-30.3,5.73,2.39,-26.3,31.6
2012-07-29 01:05:00,0.0,1.9170,0.0015,379.63,0.38,131.4,31.5,138.02,32.49,24.65,36.49,0.98,-25.12,-25.74,-50,552,-931,28.1,28.4,8.1,28.1,1.3,-30.3,5.73,2.40,-26.3,31.7
2012-07-29 01:06:00,0.0,1.9212,0.0011,379.05,0.38,132.0,32.5,138.02,32.49,24.65,36.49,1.02,-25.38,-25.75,-50,552,-931,28.1,28.8,8.3,28.1,1.3,-30.3,5.73,2.39,-26.3,31.7
2012-07-29 01:07:00,0.0,1.9234,0.0013,379.09,0.30,141.2,29.6,138.02,32.50,24.65,36.48,1.06,-25.62,-25.76,-50,552,-931,28.1,28.8,8.3,28.1,1.3,-30.3,5.73,2.38,-26.3,31.7
2012-07-29 01:08:00,0.0,1.9221,0.0012,379.59,0.39,139.9,34.6,138.01,32.50,24.65,36.49,0.98,-25.58,-25.77,-50,552,-930,28.1,27.8,7.8,28.1,1.3,-30.3,5.73,2.37,-26.3,31.6
2012-07-29 01:09:00,0.0,1.9215,0.0010,379.80,0.32,138.5,32.7,138.01,32.51,24.65,36.48,1.07,-25.45,-25.77,-50,552,-930,28.2,27.6,7.7,28.1,1.3,-30.5,5.73,2.39,-26.3,31.6
2012-07-29 01:10:00,0.0,1.9204,0.0013,379.94,0.33,141.5,28.8,138.01,32.52,24.65,36.49,0.98,-25.61,-25.78,-50,552,-931,28.2,27.5,7.7,28.1,1.3,-30.5,5.73,2.40,-26.3,31.7
2012-07-29 01:11:00,0.0,1.9218,0.0012,379.72,0.31,143.3,30.9,138.02,32.52,24.65,36.49,0.94,-25.69,-25.79,-50,552,-931,28.2,28.0,7.9,28.2,1.3,-30.5,5.73,2.40,-26.3,31.7
2012-07-29 01:12:00,0.0,1.9252,0.0011,379.35,0.32,138.1,34.3,138.02,32.53,24.65,36.49,1.03,-25.45,-25.80,-50,552,-931,28.2,28.6,8.3,28.2,1.3,-30.5,5.73,2.39,-26.3,31.7
2012-07-29 01:13:00,0.0,1.9243,0.0017,379.30,0.40,134.3,31.3,138.01,32.54,24.65,36.48,1.08,-25.58,-25.81,-50,552,-931,28.2,28.2,8.1,28.2,1.3,-30.5,5.73,2.37,-26.3,31.7
2012-07-29 01:14:00,0.0,1.9238,0.0010,379.57,0.28,143.4,32.5,138.01,32.54,24.65,36.49,1.03,-25.75,-25.82,-50,552,-931,28.2,27.8,7.9,28.2,1.3,-30.5,5.73,2.38,-26.3,31.7
2012-07-29 01:15:00,0.0,1.9234,0.0010,379.73,0.33,139.0,32.1,138.01,32.55,24.65,36.48,0.99,-25.51,-25.82,-50,552,-931,28.2,28.0,7.9,28.2,1.3,-30.5,5.73,2.39,-26.3,31.7
2012-07-29 01:16:00,0.0,1.9253,0.0010,379.34,0.27,145.0,30.1,138.01,32.56,24.65,36.49,0.97,-25.56,-25.84,-50,552,-931,28.2,28.2,8.1,28.2,1.3,-30.5,5.73,2.40,-26.3,31.6
2012-07-29 01:17:00,0.0,1.9253,0.0010,379.24,0.30,144.0,26.8,138.01,32.57,24.65,36.49,1.04,-25.75,-25.85,-50,552,-931,28.2,28.2,8.1,28.2,1.2,-30.6,5.73,2.39,-26.3,31.7
2012-07-29 01:18:00,0.0,1.9258,0.0011,379.33,0.29,137.2,27.9,138.01,32.57,24.65,36.48,1.01,-25.61,-25.85,-50,552,-931,28.3,28.3,8.2,28.2,1.2,-30.9,5.73,2.38,-26.3,31.7
2012-07-29 01:19:00,0.0,1.9267,0.0011,379.12,0.32,148.2,36.0,138.01,32.58,24.65,36.49,1.08,-25.55,-25.86,-50,552,-931,28.3,28.4,8.2,28.2,1.2,-31.0,5.73,2.37,-26.3,31.7
2012-07-29 01:20:00,0.0,1.9265,0.0009,379.09,0.32,154.3,32.3,138.01,32.59,24.65,36.50,0.99,-25.74,-25.87,-50,552,-931,28.3,28.4,8.2,28.2,1.2,-31.1,5.73,2.39,-26.3,31.8
2012-07-29 01:21:00,0.0,1.9258,0.0010,378.96,0.33,146.5,32.8,138.01,32.60,24.65,36.49,0.96,-25.72,-25.88,-50,553,-931,28.3,28.6,8.3,28.2,1.2,-31.1,5.73,2.39,-26.3,31.8
2012-07-29 01:22:00,0.0,1.9258,0.0009,378.78,0.36,152.2,32.4,138.01,32.60,24.65,36.49,1.05,-25.55,-25.88,-50,553,-931,28.3,28.4,8.2,28.2,1.2,-31.1,5.73,2.39,-26.3,31.8
2012-07-29 01:23:00,0.0,1.9190,0.0027,379.46,0.44,151.1,29.9,138.01,32.61,24.65,36.49,0.89,-25.71,-25.30,-50,552,-931,28.3,27.4,7.7,28.2,1.2,-31.0,5.73,2.38,-26.3,31.8
2012-07-29 01:24:00,0.0,1.9142,0.0017,379.76,0.36,144.9,24.0,138.01,32.62,24.65,36.49,0.91,-25.90,-23.55,-50,553,-931,28.3,27.3,7.6,28.2,1.3,-30.1,5.73,2.37,-26.3,31.8
2012-07-29 01:25:00,0.0,1.9152,0.0018,379.50,0.43,143.5,29.6,138.01,32.63,24.65,36.49,0.93,-26.01,-21.58,-50,553,-931,28.3,27.9,8.0,28.2,1.5,-28.9,5.73,2.38,-26.3,31.8
2012-07-29 01:26:00,0.0,1.9076,0.0090,379.99,1.37,153.3,26.2,138.01,32.63,24.65,36.49,0.96,-26.07,-19.63,-50,553,-931,28.3,25.8,6.8,28.3,1.6,-28.1,5.73,2.39,-26.3,31.9
2012-07-29 01:27:00,0.0,1.8905,0.0012,382.90,0.33,146.3,29.9,138.01,32.64,24.65,36.48,0.96,-26.11,-17.76,-50,553,-931,28.3,24.2,5.9,28.3,1.6,-28.0,5.73,2.39,-26.3,31.8
2012-07-29 01:28:00,0.0,1.8911,0.0009,382.68,0.31,147.3,29.0,138.01,32.65,24.65,36.48,0.90,-26.14,-15.99,-50,553,-931,28.4,24.7,6.2,28.3,1.6,-27.9,5.73,2.38,-26.3,31.9
2012-07-29 01:29:00,0.0,1.8918,0.0010,382.67,0.30,150.9,35.8,138.01,32.65,24.65,36.48,0.85,-26.14,-14.31,-50,553,-931,28.4,24.7,6.2,28.3,1.6,-28.1,5.73,2.37,-26.3,31.8
2012-07-29 01:30:00,0.0,1.8908,0.0008,382.82,0.30,156.1,30.8,138.01,32.66,24.65,36.49,0.85,-26.15,-12.72,-50,553,-931,28.4,24.4,6.1,28.3,1.5,-28.3,5.73,2.38,-26.3,31.9
2012-07-29 01:31:00,0.0,1.8911,0.0009,382.61,0.28,147.7,29.3,138.01,32.67,24.65,36.49,0.90,-26.14,-11.21,-50,553,-931,28.4,24.3,6.0,28.3,1.5,-28.5,5.73,2.39,-26.3,31.8
2012-07-29 01:32:00,0.0,1.8905,0.0009,382.92,0.31,150.5,31.1,138.01,32.67,24.65,36.48,0.92,-26.13,-9.78,-50,553,-931,28.4,23.9,5.8,28.3,1.5,-28.7,5.73,2.39,-26.3,31.9
2012-07-29 01:33:00,0.0,1.8903,0.0010,382.90,0.35,155.4,35.0,138.01,32.68,24.65,36.49,0.94,-26.12,-8.44,-50,553,-931,28.4,24.3,6.0,28.3,1.5,-28.8,5.73,2.37,-26.3,31.9
2012-07-29 01:34:00,0.0,1.8910,0.0009,382.47,0.35,156.9,26.8,138.01,32.69,24.65,36.48,0.95,-26.12,-7.15,-50,553,-931,28.4,24.6,6.2,28.4,1.4,-29.0,5.73,2.37,-26.2,31.8
2012-07-29 01:35:00,0.0,1.8910,0.0009,382.65,0.45,156.3,31.7,138.01,32.70,24.65,36.49,0.96,-26.10,-5.94,-50,553,-931,28.4,24.3,6.0,28.4,1.4,-29.1,5.73,2.38,-26.3,31.9
2012-07-29 01:36:00,0.0,1.8913,0.0009,382.99,0.28,143.9,26.1,138.01,32.70,24.65,36.48,0.94,-26.08,-4.78,-50,553,-931,28.4,24.6,6.2,28.4,1.4,-29.2,5.73,2.40,-26.2,31.8
2012-07-29 01:37:00,0.0,1.8909,0.0013,383.06,0.28,155.9,25.2,138.01,32.71,24.65,36.48,0.91,-26.08,-3.68,-50,553,-931,28.4,25.1,6.5,28.4,1.4,-29.3,5.73,2.39,-26.2,31.8
2012-07-29 01:38:00,0.0,1.8934,0.0009,382.42,0.27,150.9,35.4,138.01,32.72,24.65,36.48,0.88,-26.06,-2.64,-50,553,-931,28.5,25.5,6.8,28.4,1.4,-29.4,5.73,2.38,-26.2,31.8
2012-07-29 01:39:00,0.0,1.8933,0.0012,382.86,0.33,153.8,30.1,138.01,32.73,24.65,36.48,0.90,-26.05,-1.65,-50,553,-931,28.4,25.3,6.7,28.4,1.4,-29.5,5.73,2.38,-26.2,31.9
2012-07-29 01:40:00,0.0,1.8928,0.0011,382.75,0.36,159.3,31.5,138.01,32.73,24.65,36.48,0.90,-26.04,-0.71,-50,553,-931,28.5,25.3,6.7,28.4,1.4,-29.6,5.73,2.39,-26.2,31.9
2012-07-29 01:41:00,0.0,1.8921,0.0012,383.01,0.32,152.4,29.4,138.01,32.74,24.65,36.48,0.93,-26.03,0.17,-50,553,-931,28.5,25.2,6.6,28.4,1.4,-29.6,5.73,2.40,-26.1,31.9
2012-07-29 01:42:00,0.0,1.8917,0.0011,383.07,0.32,161.0,30.5,138.01,32.75,24.65,36.49,0.93,-26.01,1.02,-50,553,-931,28.5,25.3,6.7,28.4,1.3,-29.7,5.73,2.40,-26.1,31.9
2012-07-29 01:43:00,0.0,1.8922,0.0009,382.86,0.27,165.0,35.3,138.01,32.76,24.65,36.49,0.95,-26.01,1.81,-50,553,-931,28.5,25.6,6.8,28.4,1.3,-29.7,5.73,2.39,-26.1,31.9
2012-07-29 01:44:00,0.0,1.8918,0.0007,383.08,0.32,157.2,30.5,138.01,32.76,24.65,36.48,0.96,-26.00,2.53,-50,553,-931,28.5,25.4,6.8,28.4,1.3,-29.9,5.73,2.38,-26.1,32.0
2012-07-29 01:45:00,0.0,1.8925,0.0011,382.96,0.33,157.4,38.0,138.01,32.77,24.65,36.49,0.96,-25.99,3.07,-50,553,-931,28.5,26.0,7.1,28.4,1.3,-29.9,5.73,2.40,-26.1,31.9
2012-07-29 01:46:00,0.0,1.8933,0.0012,382.82,0.40,162.0,27.6,138.01,32.78,24.65,36.48,0.96,-25.98,3.31,-50,553,-931,28.5,25.9,7.1,28.4,1.3,-29.9,5.73,2.41,-26.1,31.9
2012-07-29 01:47:00,0.0,1.8947,0.0014,382.82,0.40,146.5,30.7,138.01,32.78,24.65,36.48,0.95,-25.97,3.55,-50,553,-931,28.5,26.2,7.2,28.4,1.3,-29.9,5.73,2.40,-26.1,31.9
2012-07-29 01:48:00,0.0,1.8925,0.0012,383.32,0.36,159.9,29.4,138.01,32.79,24.65,36.48,0.92,-25.95,3.96,-50,553,-931,28.5,26.1,7.2,28.4,1.3,-29.9,5.73,2.39,-26.1,31.9
2012-07-29 01:49:00,0.0,1.8940,0.0011,383.08,0.23,159.9,34.0,138.01,32.80,24.65,36.48,0.93,-25.94,4.52,-50,553,-931,28.5,26.3,7.3,28.5,1.3,-30.1,5.73,2.39,-26.1,32.0
2012-07-29 01:50:00,0.0,1.8926,0.0008,383.33,0.31,155.8,28.1,138.01,32.80,24.65,36.48,0.91,-25.93,5.11,-50,554,-931,28.5,26.3,7.3,28.5,1.3,-30.1,5.73,2.40,-26.1,32.0
2012-07-29 01:51:00,0.0,1.8920,0.0010,383.43,0.29,164.0,30.6,138.01,32.81,24.65,36.48,0.90,-25.92,5.67,-50,554,-931,28.5,26.4,7.4,28.5,1.3,-30.1,5.73,2.41,-26.0,31.9
2012-07-29 01:52:00,0.0,1.8938,0.0010,383.19,0.24,159.2,32.2,138.01,32.82,24.65,36.48,0.93,-25.91,6.20,-50,554,-931,28.6,26.9,7.7,28.5,1.3,-30.1,5.73,2.40,-26.0,32.0
2012-07-29 01:53:00,0.0,1.8967,0.0013,382.89,0.32,168.8,33.4,138.01,32.82,24.65,36.48,0.94,-25.90,6.71,-50,554,-931,28.6,27.4,7.9,28.5,1.3,-30.1,5.73,2.38,-26.0,32.0
2012-07-29 01:54:00,0.0,1.8947,0.0017,383.46,0.39,169.8,28.4,138.01,32.83,24.65,36.48,0.94,-25.90,7.20,-50,554,-931,28.6,26.8,7.6,28.5,1.3,-30.1,5.73,2.39,-26.0,32.0
2012-07-29 01:55:00,0.0,1.8939,0.0010,383.48,0.32,159.1,27.7,138.01,32.84,24.65,36.48,0.94,-25.89,7.68,-50,553,-931,28.6,27.1,7.8,28.5,1.3,-30.1,5.73,2.40,-26.0,32.0
2012-07-29 01:56:00,0.0,1.8951,0.0010,383.25,0.26,163.5,33.5,138.01,32.84,24.65,36.49,0.95,-25.88,8.14,-50,554,-931,28.6,27.7,8.1,28.5,1.3,-30.1,5.73,2.41,-26.0,32.0
2012-07-29 01:57:00,0.0,1.8948,0.0026,383.33,0.48,165.9,27.3,138.01,32.85,24.65,36.49,0.95,-25.88,8.58,-50,554,-931,28.6,27.3,7.9,28.5,1.3,-30.0,5.73,2.39,-26.0,32.0
2012-07-29 01:58:00,0.0,1.8933,0.0013,383.97,0.34,161.6,29.8,138.01,32.85,24.65,36.48,0.95,-25.86,9.00,-50,554,-931,28.6,27.4,8.0,28.5,1.3,-30.1,5.73,2.38,-26.0,32.0
2012-07-29 01:59:00,0.0,1.8935,0.0013,383.99,0.32,159.1,28.0,138.01,32.86,24.65,36.48,1.13,-44.06,-11.86,-50,554,-931,28.6,27.7,8.1,28.5,1.3,-30.0,5.42,2.46,-30.3,32.0
2012-07-29 02:00:00,0.0,1.8939,0.0020,383.67,0.43,162.9,31.8,138.01,32.87,24.65,36.48,0.96,-25.84,9.81,-50,554,-931,28.6,27.8,8.2,28.5,1.3,-30.0,5.73,2.40,-26.0,32.1
2012-07-29 02:01:00,0.0,1.8950,0.0010,383.96,0.32,177.1,29.3,138.01,32.88,24.65,36.47,0.96,-25.83,10.19,-50,554,-931,28.6,28.3,8.4,28.6,1.3,-30.3,5.73,2.41,-26.0,32.1
2012-07-29 02:02:00,0.0,1.8959,0.0009,383.98,0.31,164.5,32.9,138.01,32.88,24.65,36.48,0.96,-25.82,10.56,-50,554,-931,28.6,28.3,8.5,28.6,1.3,-30.3,5.73,2.39,-26.0,32.0
2012-07-29 02:03:00,0.0,1.8919,0.0012,384.75,0.27,169.4,32.6,138.01,32.89,24.65,36.48,0.96,-25.81,10.93,-50,554,-931,28.6,28.2,8.4,28.6,1.3,-30.2,5.73,2.38,-26.0,32.1
2012-07-29 02:04:00,0.0,1.8912,0.0013,384.89,0.28,169.4,28.7,138.01,32.90,24.65,36.48,0.96,-25.81,11.27,-50,554,-931,28.6,28.3,8.5,28.6,1.3,-30.3,5.73,2.40,-26.0,32.1
2012-07-29 02:05:00,0.0,1.8951,0.0017,384.64,0.36,167.1,35.5,138.00,32.91,24.65,36.48,0.96,-25.80,11.61,-50,554,-931,28.7,28.8,8.7,28.6,1.3,-30.3,5.73,2.41,-26.0,32.1
2012-07-29 02:06:00,0.0,1.8923,0.0012,384.95,0.32,168.4,30.8,138.00,32.92,24.65,36.48,0.96,-25.80,11.93,-50,554,-931,28.7,28.5,8.6,28.6,1.3,-30.2,5.73,2.40,-26.0,32.2
2012-07-29 02:07:00,0.0,1.8921,0.0011,385.07,0.27,169.3,29.8,138.00,32.92,24.65,36.48,0.96,-25.79,12.25,-50,554,-931,28.7,28.8,8.8,28.6,1.3,-30.3,5.73,2.38,-26.0,32.2
2012-07-29 02:08:00,0.0,1.8920,0.0011,385.01,0.31,165.1,32.4,138.01,32.93,24.65,36.48,0.94,-25.78,12.55,-50,554,-931,28.7,28.8,8.7,28.6,1.3,-30.2,5.73,2.38,-26.0,32.2
2012-07-29 02:09:00,0.0,1.8922,0.0010,385.03,0.30,171.8,32.5,138.01,32.94,24.65,36.48,0.92,-25.77,12.85,-50,554,-931,28.7,28.9,8.8,28.6,1.3,-30.2,5.73,2.40,-26.0,32.2
2012-07-29 02:10:00,0.0,1.8944,0.0010,384.75,0.30,164.4,27.6,138.00,32.94,24.65,36.48,0.96,-25.77,13.12,-50,554,-931,28.7,29.2,9.0,28.6,1.3,-30.2,5.73,2.41,-26.0,32.1
2012-07-29 02:11:00,0.0,1.8923,0.0014,385.14,0.37,174.7,29.1,138.00,32.95,24.65,36.47,0.95,-25.76,13.39,-50,554,-931,28.7,28.9,8.8,28.6,1.3,-30.2,5.73,2.39,-26.0,32.2
2012-07-29 02:12:00,0.0,1.8924,0.0018,385.00,0.32,172.6,31.5,138.00,32.96,24.65,36.48,0.94,-25.75,13.65,-50,554,-931,28.7,29.4,9.1,28.6,1.3,-30.2,5.73,2.38,-26.0,32.1
2012-07-29 02:13:00,0.0,1.8940,0.0011,384.86,0.27,169.7,30.2,138.00,32.96,24.65,36.48,0.95,-25.75,13.89,-50,554,-931,28.7,29.3,9.1,28.7,1.3,-30.2,5.73,2.39,-26.0,32.2
2012-07-29 02:14:00,0.0,1.8921,0.0010,385.23,0.32,168.3,27.3,138.00,32.97,24.65,36.48,0.94,-25.74,14.13,-50,554,-931,28.7,29.4,9.1,28.7,1.3,-30.2,5.73,2.41,-25.9,32.2
2012-07-29 02:15:00,0.0,1.8945,0.0011,385.04,0.31,171.7,29.7,138.00,32.98,24.65,36.48,0.94,-25.74,14.36,-50,554,-931,28.7,29.8,9.3,28.7,1.3,-30.2,5.73,2.40,-25.9,32.2
2012-07-29 02:16:00,0.0,1.8942,0.0010,385.18,0.30,173.9,31.7,138.00,32.98,24.65,36.48,0.96,-25.73,14.57,-50,554,-931,28.7,29.9,9.4,28.7,1.3,-30.2,5.73,2.38,-26.0,32.2
2012-07-29 02:17:00,0.0,1.8947,0.0008,385.20,0.29,173.8,28.6,138.00,32.99,24.65,36.48,0.94,-25.72,14.79,-50,554,-931,28.7,30.1,9.5,28.7,1.3,-30.2,5.73,2.38,-25.9,32.2
2012-07-29 02:18:00,0.0,1.8955,0.0010,385.37,0.30,169.5,28.7,138.00,33.00,24.65,36.48,0.94,-25.71,14.98,-50,554,-931,28.8,30.3,9.6,28.7,1.3,-30.2,5.73,2.40,-25.9,32.2
2012-07-29 02:19:00,0.0,1.8940,0.0014,385.78,0.30,168.6,32.8,138.00,33.01,24.65,36.47,0.95,-25.71,15.18,-50,554,-931,28.8,30.2,9.6,28.7,1.3,-30.2,5.73,2.41,-25.9,32.2
2012-07-29 02:20:00,0.0,1.8927,0.0014,386.04,0.31,175.0,27.9,138.00,33.01,24.65,36.48,0.95,-25.70,15.36,-50,554,-931,28.8,30.4,9.7,28.7,1.3,-30.2,5.73,2.40,-25.9,32.3